Regional Weather Roundup
Issued by NWS

Home | Current Version | Previous Version | Text Only | Print | Product List | Glossary Off
Versions: 1 2 3 4 5 6 7 8 9 10 11 12 13 14 15 16 17 18 19 20 21 22 23 24 25 26 27 28 29 30 31 32 33 34 35 36 37 38 39 40 41 42 43 44 45 46 47 48 49 50

000
ASUS43 KMKX 040521
RWRWI

WISCONSIN REGIONAL WEATHER ROUNDUP
NATIONAL WEATHER SERVICE MILWAUKEE/SULLIVAN WI
1100 PM CST TUE MAR 03 2015

NOTE: "FAIR" INDICATES FEW OR NO CLOUDS BELOW 12,000 FEET WITH NO
SIGNIFICANT WEATHER AND/OR OBSTRUCTIONS TO VISIBILITY.

WIZ001-002-006>008-014>016-023>028-040600-
NORTHWEST WISCONSIN

CITY           SKY/WX    TMP DP  RH WIND       PRES   REMARKS
SUPERIOR ARPT  CLEAR      7  -3  63 W16       29.92R WCI -12
ASHLAND        MOCLDY     9  -2  61 W14       29.86R WCI  -7
HAYWARD        CLEAR      9  -3  58 VRB7      29.85R WCI  -2
SIREN          CLEAR      7  -6  56 W7G23     29.93R WCI  -5
CUMBERLAND     CLEAR      9  -2  61 W17       29.89R WCI -10
RICE LAKE      CLEAR      9  -1  63 W9        29.91S WCI  -4
CHETEK         CLEAR     10   0  66 MISG      29.90R
LADYSMITH      CLEAR     11   2  66 W9        29.86S WCI  -1
EAU CLAIRE     CLEAR     11  -1  58 W12       29.92R WCI  -3
MENOMONIE      CLEAR     11  -1  60 W17G23    29.94R WCI  -7
NEW RICHMOND   CLEAR      7  -3  62 NW17      29.96R WCI -11
OSCEOLA        CLEAR      8  -3  62 W10G21    29.99S WCI  -6
$$

WIZ003>005-009-010-017-018-040600-
NORTH CENTRAL WISCONSIN

CITY           SKY/WX    TMP DP  RH WIND       PRES   REMARKS
MANITOWISH WTR PTCLDY     9   0  68 NW13G18   29.75R WCI  -7
ARBOR VITAE    PTCLDY    13   3  65 NW8       29.75R WCI   2
WOODRUFF       PTCLDY    13   3  65 NW8       29.75R WCI   2
RHINELANDER    CLEAR     13   3  64 W14G22    29.74R WCI  -2
EAGLE RIVER    CLOUDY    13   3  64 W20G26    29.72R WCI  -5
LAND O LAKES   CLOUDY    15   5  66 W10G18    29.72R WCI   2
PHILLIPS       CLEAR     10   0  64 W9        29.78F WCI  -4
TOMAHAWK       PTCLDY    13   3  63 W10       29.78R WCI   0
MEDFORD        CLEAR     13   3  64 W15G22    29.79R WCI  -2
MERRILL        CLEAR     16   3  56 NW14      29.78R WCI   2
$$

WIZ029-030-035-036-043>047-040600-
CENTRAL WISCONSIN

CITY           SKY/WX    TMP DP  RH WIND       PRES   REMARKS
WAUSAU         CLEAR     17   6  62 W17       29.78R WCI   1
MOSINEE        CLEAR     18   7  62 W14G22    29.80R WCI   4
MARSHFIELD     CLEAR     16   6  65 W20G26    29.82R WCI  -1
STEVENS POINT  CLEAR     18   4  55 W12G21    29.81R WCI   5
WAUPACA        CLEAR     25   9  51 W12G20    29.81R WCI  14
WAUTOMA        PTCLDY    23  12  62 W13       29.83R WCI  11
WISC RAPIDS    CLEAR     19   7  59 NW14G23   29.85R WCI   6
CAMP DOUGLAS   CLEAR     19  10  68 W14G22    29.87R WCI   6
$$

WIZ011>013-019>022-031-037>040-048>050-040600-
NORTHEAST WISCONSIN

CITY           SKY/WX    TMP DP  RH WIND       PRES   REMARKS
ANTIGO         CLEAR     16   7  65 W21G26    29.74R WCI  -1
SHAWANO        CLEAR     26  13  59 W10       29.77R WCI  15
OCONTO         PTCLDY    26  15  63 NW14G20   29.75R WCI  14
STURGEON BAY   PTCLDY    25  14  63 W14       29.76R WCI  13
GREEN BAY      CLEAR     26  16  65 W18G25    29.77R WCI  13
MANITOWOC      MOCLDY    27  18  69 W15G21    29.77R WCI  15
APPLETON       PTCLDY    23  10  58 W20G25    29.78R WCI   8
CLINTONVILLE   MOCLDY    25  12  58 NW15      29.78R WCI  12
OSHKOSH        MOCLDY    26  15  63 NW15G23   29.79R WCI  14
$$

WIZ032>034-041-042-053>061-040600-
SOUTHWEST WISCONSIN

CITY           SKY/WX    TMP DP  RH WIND       PRES   REMARKS
LA CROSSE      CLEAR     16   6  65 NW17G25   29.95R WCI   0
SPARTA         CLEAR     17   9  72 W7        29.92R WCI   7
VIROQUA        CLEAR     14   8  76 NW15      29.89R WCI  -2
BOSCOBEL       PTCLDY    19  10  68 W8        29.95R WCI   9
PRAIRIE DU CHI CLEAR     15   6  67 W16       29.97R WCI   0
PLATTEVILLE    MOCLDY    18  13  80 W13G18    29.90S WCI   4
$$

WIZ056-057-062-063-064-067-068-040600-
SOUTH CENTRAL WISCONSIN

CITY           SKY/WX    TMP DP  RH WIND       PRES   REMARKS
REEDSBURG      PTCLDY    21  13  70 W10       29.86R WCI  10
BARABOO/DELLS  PTCLDY    23  14  69 NW15      29.84R WCI  10
LONE ROCK      PTCLDY    22  12  65 NW15      29.90R WCI   9
MINERAL POINT  FLURRIES  21  16  79 W14G21    29.87R WCI   8
MADISON        MOCLDY    29  17  61 W10G20    29.84R WCI  20
MIDDLETON      CLOUDY    29  18  64 NW15G22   29.85R WCI  17
WATERTOWN      CLOUDY    29  23  79 W5        29.82R WCI  24
MONROE         CLOUDY    27  23  86 W22       29.85R WCI  12
JANESVILLE     CLOUDY    32  23  69 W12       29.85R WCI  23
$$

WIZ051-052-058>065-066-070>072-040600-
SOUTHEAST WISCONSIN

CITY           SKY/WX    TMP DP  RH WIND       PRES   REMARKS
MILWAUKEE      CLOUDY    30  22  72 W6        29.82S WCI  24
WAUKESHA       CLOUDY    28  21  74 W13G18    29.82S WCI  18
MILWAUKEE/TIMM CLOUDY    30  21  69 W8        29.82F WCI  23
RACINE         CLOUDY    30  22  72 W9        29.84F WCI  22
BURLINGTON     CLOUDY    28  23  81 W6        29.83S WCI  22
KENOSHA        CLOUDY    30  24  78 W9        29.83S WCI  22
FOND DU LAC    MOCLDY    27  15  61 W9        29.81R WCI  18
SHEBOYGAN      CLOUDY    29  20  69 W9        29.78R WCI  20
WEST BEND      CLOUDY    30  19  64 W8        29.80S WCI  23
JUNEAU         CLOUDY    28  19  67 W6        29.82R WCI  22
$$

LSZ147-162-040600-
LAKE SUPERIOR

STATION/POSITION TIME  TEMP    WIND        PRES    WAVE
                       AIR SEA DIR/SP/G            HT/PER
                 (UTC) (F)     (DEG/KT/KT) (MB)    (FT/S)
DEVILS ISLAND    0500   11     290/ 26/ 33 1011.7R
PORT WING        0420   11     280/ 23     1011.5R
SAXON HARBOR     0400   14     290/ 15/ 22 1010.2R
$$

LMZ867-665-643>646-040600-
LAKE MICHIGAN

STATION/POSITION TIME  TEMP    WIND        PRES    WAVE
                       AIR SEA DIR/SP/G            HT/PER
                 (UTC) (F)     (DEG/KT/KT) (MB)    (FT/S)
NORTHPORT PIER   0502   26     290/  9/ 15 1006.4R
SISTER BAY       0413   24     290/ 13/ 15   N/A
KEWAUNEE LAKESHO 0400   29     270/  9/ 13 1006.4R
SHEBOYGAN LAKESH 0500   30     270/ 10/ 12 1009.9R
PORT WASHINGTON  0440   31     280/  2/  6 1010.2R
MILWAUKEE LAKESH 0500   31     290/ 12/ 18   N/A
KENOSHA   LAKESH 0500   31     260/  6/ 10 1010.5R
$$

TC  - TEMPERATURE IN CELSIUS
VSB - VISIBILITY IN STATUTE MILES
WCI - WIND CHILL INDEX
HX  - HEAT INDEX



USA.gov is the U.S. government's official web portal to all federal, state and local government web resources and services.